Regional Weather Roundup
Issued by NWS Goodland, KS

Home | Current Version | Previous Version | Graphics & Text | Print | Product List | Glossary On
Versions: 1 2 3 4 5 6 7 8 9 10 11 12 13 14 15 16 17 18 19 20 21 22 23 24 25 26 27 28 29 30 31 32 33 34 35 36 37 38 39 40 41 42 43 44 45 46 47 48 49 50
049
ASUS43 KGLD 080459
RWRGLD

GOODLAND FORECAST AREA HOURLY WEATHER ROUNDUP
NATIONAL WEATHER SERVICE GOODLAND KS
1000 PM MST SUN FEB 07 2016

...OFFICIAL OBSERVATIONS...

CITY           SKY/WX    TMP DP  RH WIND       PRES   REMARKS
GOODLAND KS    CLOUDY    28  15  58 NW20      30.32S WCI  15
HILL CITY KS   CLEAR     32  18  56 NW18G25   30.27R
IMPERIAL NEB   CLEAR     28  13  53 NW23G31   30.29R WCI  14
MCCOOK NEB     CLEAR     29  17  61 NW20      30.26R WCI  16
AKRON CO       CLOUDY    26  15  63 NW21G30   30.36R WCI  12
BURLINGTON CO  CLOUDY    28  15  58 NW17      30.35R WCI  16
LIMON CO       CLOUDY    14   8  77 NW8       30.38R
$$

...UNOFFICIAL OBSERVATIONS...

CITY           SKY/WX    TMP DP  RH WIND       PRES   REMARKS
COLBY KS       CLEAR     28  19  69 NW22G28   30.30S WCI  15
GOVE KS          N/A     32  32 100 MISG        N/A
LENORA KS        N/A     30  32 100 MISG        N/A
NORTON KS      CLEAR     28  16  59 W20       30.23S WCI  15
KIT CARSON CO    N/A     23  16  74 MISG        N/A
YUMA CO          N/A     26  16  65 N16         N/A  WCI  14
$$




USA.gov is the U.S. government's official web portal to all federal, state and local government web resources and services.